ZL1TQN Weather Reports


Display with metric or nautical units.
time (UTC)temp
F
wind
direction
speed
MPH
gust
MPH
rain 1hr
in
rain 24hr
in
rain mn
in
humidity
%
barometer
mb
20260504082005 52 139 0.0 0.0 0.00 0.00 0.00 87 1035.3
20260504081006 53 143 0.0 0.0 0.00 0.00 0.00 87 1035.3
20260504050006 60 15 0.0 1.0 0.00 0.00 0.00 72 1034.0
20260504045506 60 15 0.0 2.0 0.00 0.00 0.00 72 1033.9
20260504045006 60 17 1.0 2.0 0.00 0.00 0.00 71 1033.9
20260504044506 60 21 0.0 2.0 0.00 0.00 0.00 71 1033.9
20260504044006 61 11 1.0 3.0 0.00 0.00 0.00 71 1033.9
20260504043506 61 28 2.0 3.0 0.00 0.00 0.00 70 1033.9
20260504043006 61 24 1.0 3.0 0.00 0.00 0.00 69 1033.9
20260504042506 61 25 2.0 3.0 0.00 0.00 0.00 69 1033.9
20260504042006 62 15 2.0 3.0 0.00 0.00 0.00 69 1033.9
20260504041506 62 23 2.0 6.0 0.00 0.00 0.00 68 1033.9
20260504041006 62 17 1.0 6.0 0.00 0.00 0.00 68 1033.9
20260504040006 62 73 2.0 6.0 0.00 0.00 0.00 68 1033.9
20260504035506 63 12 3.0 6.0 0.00 0.00 0.00 65 1033.9
20260504035006 63 7 2.0 5.0 0.00 0.00 0.00 65 1033.9
20260504034506 63 15 2.0 5.0 0.00 0.00 0.00 64 1033.9
20260504034005 64 9 2.0 3.0 0.00 0.00 0.00 65 1033.9
20260504033006 64 345 2.0 5.0 0.00 0.00 0.00 64 1033.8
20260504032506 64 3 1.0 6.0 0.00 0.00 0.00 67 1033.8
20260504032006 64 13 3.0 6.0 0.00 0.00 0.00 65 1033.8
20260504031505 64 6 3.0 5.0 0.00 0.00 0.00 65 1033.8
20260504031005 64 1 1.0 6.0 0.00 0.00 0.00 64 1033.9
20260504025505 64 312 2.0 5.0 0.00 0.00 0.00 63 1033.8
20260504024006 64 353 2.0 3.0 0.00 0.00 0.00 66 1033.8
20260504023507 63 352 1.0 6.0 0.00 0.00 0.00 64 1033.8
20260504023006 64 27 2.0 6.0 0.00 0.00 0.00 65 1033.8
20260504022505 64 111 2.0 3.0 0.00 0.00 0.00 65 1033.8
20260504022006 64 88 2.0 5.0 0.00 0.00 0.00 66 1033.8
20260504021506 64 101 1.0 5.0 0.00 0.00 0.00 67 1033.7
20260504021006 64 85 2.0 6.0 0.00 0.00 0.00 66 1033.8
20260504020005 65 62 2.0 7.0 0.00 0.00 0.00 65 1033.8
20260504015005 64 23 2.0 5.0 0.00 0.00 0.00 65 1033.8
20260504014505 65 110 2.0 3.0 0.00 0.00 0.00 65 1033.8
20260504014005 65 114 2.0 3.0 0.00 0.00 0.00 64 1033.8
20260504013506 64 89 0.0 2.0 0.00 0.00 0.00 68 1033.9
20260504013005 63 121 1.0 3.0 0.00 0.00 0.00 67 1033.9
20260504012006 63 182 1.0 3.0 0.00 0.00 0.00 63 1034.0
20260504011506 63 320 1.0 3.0 0.00 0.00 0.00 64 1034.1
20260504011005 63 275 1.0 5.0 0.00 0.00 0.00 63 1034.2
20260504005505 65 303 2.0 3.0 0.00 0.00 0.00 61 1034.3
20260504005005 65 329 2.0 3.0 0.00 0.00 0.00 62 1034.3
20260504004505 65 8 1.0 3.0 0.00 0.00 0.00 63 1034.4
20260504004007 64 1 1.0 5.0 0.00 0.00 0.00 63 1034.4
20260504003505 63 312 2.0 5.0 0.00 0.00 0.00 63 1034.4
20260504003006 63 0 2.0 3.0 0.00 0.00 0.00 65 1034.4
20260504002506 62 252 2.0 3.0 0.00 0.00 0.00 65 1034.5
20260504001505 61 262 1.0 5.0 0.00 0.00 0.00 66 1034.6
20260504000006 64 279 2.0 3.0 0.00 0.00 0.00 64 1034.9
20260503235506 64 271 2.0 3.0 0.00 0.00 0.00 63 1034.9
20260503235005 64 354 2.0 3.0 0.00 0.00 0.00 63 1035.0
20260503234006 63 267 2.0 7.0 0.00 0.00 0.00 64 1035.1
20260503233505 62 294 3.0 7.0 0.00 0.00 0.00 64 1035.2
20260503233005 62 241 1.0 3.0 0.00 0.00 0.00 65 1035.3
20260503232505 61 269 1.0 3.0 0.00 0.00 0.00 68 1035.4
20260503232005 61 263 1.0 3.0 0.00 0.00 0.00 68 1035.4
20260503231505 61 272 2.0 3.0 0.00 0.00 0.00 68 1035.5
20260503225505 62 228 1.0 5.0 0.00 0.00 0.00 66 1035.4
20260503225005 62 269 2.0 5.0 0.00 0.00 0.00 67 1035.5
20260503224005 61 246 1.0 3.0 0.00 0.00 0.00 68 1035.4
20260503223506 61 115 1.0 3.0 0.00 0.00 0.00 68 1035.4
20260503223006 61 199 1.0 3.0 0.00 0.00 0.00 69 1035.4
20260503222506 61 185 2.0 3.0 0.00 0.00 0.00 68 1035.5
20260503221505 60 172 2.0 3.0 0.00 0.00 0.00 69 1035.5
20260503221006 60 187 1.0 5.0 0.00 0.00 0.00 71 1035.5
20260503215505 60 218 2.0 3.0 0.00 0.00 0.00 72 1035.5
20260503215005 60 190 0.0 6.0 0.00 0.00 0.00 75 1035.5
20260503214505 60 137 2.0 6.0 0.00 0.00 0.00 74 1035.5
20260503214005 60 204 1.0 3.0 0.00 0.00 0.00 80 1035.5
20260503213505 59 239 1.0 3.0 0.00 0.00 0.00 80 1035.5
20260503212005 57 152 1.0 3.0 0.00 0.00 0.00 82 1035.5
20260503211506 57 144 1.0 5.0 0.00 0.00 0.00 83 1035.5
20260503211006 57 126 1.0 5.0 0.00 0.00 0.00 84 1035.5
20260503210007 56 160 2.0 3.0 0.00 0.00 0.00 84 1035.5
20260503205506 56 154 1.0 3.0 0.00 0.00 0.00 85 1035.5
20260503205005 56 134 2.0 5.0 0.00 0.00 0.00 86 1035.5
20260503204005 55 137 2.0 5.0 0.00 0.00 0.00 88 1035.5
20260503203505 54 122 1.0 3.0 0.00 0.00 0.00 88 1035.5
20260503203005 54 151 1.0 3.0 0.00 0.00 0.00 89 1035.5
20260503202506 53 194 2.0 3.0 0.00 0.00 0.00 90 1035.5
20260503201505 53 139 1.0 3.0 0.00 0.00 0.00 90 1035.4
20260503201005 53 124 1.0 3.0 0.00 0.00 0.00 90 1035.4
20260503200005 52 110 1.0 3.0 0.00 0.00 0.00 91 1035.3
20260503195006 52 131 1.0 3.0 0.00 0.00 0.00 91 1035.1
20260503194505 52 130 1.0 2.0 0.00 0.00 0.00 91 1035.0
20260503193005 51 128 1.0 3.0 0.00 0.00 0.00 91 1035.0
20260503192505 51 147 1.0 3.0 0.00 0.00 0.00 91 1035.0
20260503190005 51 133 1.0 2.0 0.00 0.00 0.00 92 1034.5
20260503185505 51 165 1.0 2.0 0.00 0.00 0.00 92 1034.5
20260503185006 51 127 1.0 2.0 0.00 0.00 0.00 92 1034.5
20260503184005 51 77 0.0 2.0 0.00 0.00 0.00 92 1034.5
20260503183506 51 96 1.0 2.0 0.00 0.00 0.00 92 1034.5
20260503182505 52 79 1.0 2.0 0.00 0.00 0.00 92 1034.3
20260503182006 52 89 1.0 2.0 0.00 0.00 0.00 92 1034.3
20260503181006 52 106 0.0 2.0 0.00 0.00 0.00 92 1034.2
20260503175505 52 108 0.0 3.0 0.00 0.00 0.00 92 1034.0
20260503175005 52 97 1.0 2.0 0.00 0.00 0.00 91 1034.0
20260503174505 52 143 0.0 2.0 0.00 0.00 0.00 91 1034.0
20260503173005 52 144 1.0 5.0 0.00 0.00 0.00 92 1033.9
20260503172505 52 158 1.0 3.0 0.00 0.00 0.00 92 1033.9
20260503172005 52 136 1.0 3.0 0.00 0.00 0.00 92 1033.9
20260503171006 52 135 1.0 3.0 0.00 0.00 0.00 92 1034.0
20260503131005 49 142 0.0 0.0 0.00 0.00 0.00 92 1035.5